BSAT-3C (JCSAT-110R)

Last updated on Tue Sep 22 2026 00:03:12 GMT+0000 (Coordinated Universal Time)

1 37776U 11041B 26264.58215110 -.00000354 00000+0 00000+0 0 9991 2 37776 0.0151 4.1356 0000284 246.1366 69.7315 1.00272531 51435
UTC large
Height (km)
Speed (km/s)
/
Latitude / Longitude
Inclination (degrees)
Orbital Period (minutes)
Azimuth
Elevation
Range (km)
Doppler Factor

Next 0 passes for location: London (51.5072 / 0.1276)

No passes found over London.
BSAT-3C (JCSAT-110R)